LogID,LogEntryDate,LogEntryTime,LogEntrySeconds,LogNotes,AFR,STFT,CurrentLTFT,CruiseLTFT,IdleLTFT,IPW,O2Sensor2,Load,AFRMAP,LoadTiming,TimingAdv,KnockSum,RPM,IDC,Baro,MAP,Boost,OmniMAP,OmniBoost,WGDC_Active,MAF,InVVTtarget,ExVVTtarget,InVVTactual,ExVVTactual,TPS,APP,IAT,WGDCCorr,Speed,Battery,ECT,MAT,MAPCalcs,IMAPCalcs,MAFCalcs,ChosenCalc,EthanolPercent,Custom
1,2019-05-27,11:36:18.45236,0.23498,,0,0,-7.421875,-7.421875,-3.515625,2.6,0,62.5,14.7,60.9375,34,0,2859.375,6.1953125,14.35873626,10.2276114,-4.13112486,12.4179,-1.94083626,0,1.529424,25,-10,24.84375,-0.15625,16.8627450980392,9.61176470588235,80.6,0,31.075,14.37268,185,95,56.25,50,12.5,50,78.0392156862745,
2,2019-05-27,11:36:18.48361,0.26704,,0,0,-7.421875,-7.421875,-3.515625,1.7,0,50,14.7,46.875,38,0,2835.9375,4.017578125,14.35873626,10.2276114,-4.13112486,12.4179,-1.94083626,0,1.529424,25,-10,24.84375,-0.15625,16.8627450980392,9.61176470588235,80.6,0,31.075,14.37268,185,95,45.3125,40.625,26.5625,42.1875,78.0392156862745,
3,2019-05-27,11:36:18.53048,0.30493,,0,0,-7.421875,-7.421875,-3.515625,1.8,0,42.1875,14.7,40.625,41,0,2773.4375,4.16015625,14.35873626,7.5259782,-6.83275806,9.1377,-5.22103626,0,1.588248,25,-10,24.84375,-0.15625,16.8627450980392,9.61176470588235,80.6,0,31.075,14.37268,185,95,40.625,35.9375,10.9375,35.9375,78.0392156862745,
4,2019-05-27,11:36:18.56171,0.33933,,11.7012,0,-7.421875,-7.421875,-3.515625,1.9,0,35.9375,14.7,35.9375,39,0,2812.5,4.453125,14.35873626,7.5259782,-6.83275806,9.1377,-5.22103626,0,1.588248,17.5,-10,24.0625,-4.21875,16.8627450980392,9.61176470588235,80.6,0,31.075,14.37268,185,95,37.5,34.375,12.5,34.375,78.4313725490196,
5,2019-05-27,11:36:18.59296,0.37922,,11.7012,0,-7.421875,-7.421875,-3.515625,1.7,0,34.375,14.7,32.8125,39,0,2820.3125,3.99544270833333,14.35873626,6.3681354,-7.99060086,7.7319,-6.62683626,0,1.490208,17.5,-10,24.0625,-4.21875,14.9019607843137,9.61176470588235,80.6,0,31.075,14.37268,185,95,31.25,28.125,21.875,29.6875,78.4313725490196,
6,2019-05-27,11:36:18.63983,0.41162,,11.7012,0,-7.421875,-7.421875,-3.515625,1.7,0,29.6875,14.7,29.6875,40,0,2812.5,3.984375,14.35873626,6.3681354,-7.99060086,7.7319,-6.62683626,0,1.490208,15,-9.375,22.1875,-4.84375,14.9019607843137,9.61176470588235,80.6,0,31.075,14.22602,185,95,28.125,25,25,28.125,78.4313725490196,
7,2019-05-27,11:36:18.67106,0.4567,,11.7012,0,-7.421875,-7.421875,-3.515625,1.6,0,28.125,14.7,26.5625,39,0,2835.9375,3.78125,14.35873626,5.4997533,-8.85898296,6.67755,-7.68118626,0,1.76472,15,-9.375,22.1875,-4.84375,14.9019607843137,9.61176470588235,80.6,0,31.075,14.22602,185,95,25,21.875,29.6875,25,78.4313725490196,
8,2019-05-27,11:36:18.71793,0.4902,,11.0103,0,-7.421875,-7.421875,-3.515625,1.5,0,23.4375,14.7,23.4375,39,0,2875,3.59375,14.35873626,5.4997533,-8.85898296,6.67755,-7.68118626,0,1.76472,15,-3.125,20,-5.9375,14.5098039215686,9.61176470588235,80.6,0,31.075,14.22602,185,95,21.875,20.3125,21.875,21.875,78.0392156862745,
9,2019-05-27,11:36:18.74917,0.53014,,11.0103,0,-7.421875,-7.421875,-3.515625,1.5,0,21.875,14.7,20.3125,40,0,2867.1875,3.583984375,14.35873626,4.9208319,-9.43790436,5.97465,-8.38408626,0,1.921584,15,-3.125,20,-5.9375,14.5098039215686,9.61176470588235,80.6,0,31.075,14.29935,183.2,95,20.3125,17.1875,35.9375,20.3125,78.0392156862745,
10,2019-05-27,11:36:18.78041,0.5664,,11.0103,0,-7.421875,-7.421875,-3.515625,1.4,0,18.75,14.7,18.75,42,0,2835.9375,3.30859375,14.35873626,4.9208319,-9.43790436,5.97465,-8.38408626,0,1.921584,14.375,0,18.28125,-1.25,14.5098039215686,9.61176470588235,80.6,0,31.075,14.29935,183.2,95,18.75,17.1875,43.75,18.75,78.0392156862745,
11,2019-05-27,11:36:18.81166,0.59419,,11.0103,0,-7.421875,-7.421875,-3.515625,1.4,0,18.75,14.7,18.75,42,0,2828.125,3.29947916666667,14.35873626,4.7278581,-9.63087816,5.74035,-8.61838626,0,2.05884,14.375,0,18.28125,-1.25,14.9019607843137,17.2,80.6,0,31.075,14.29935,183.2,95,18.75,0,42.1875,18.75,78.0392156862745,
12,2019-05-27,11:36:18.84290,0.61788,,11.0103,0,-7.421875,-7.421875,-3.515625,1.4,0,18.75,14.7,18.75,43,0,2828.125,3.29947916666667,14.35873626,4.7278581,-9.63087816,5.74035,-8.61838626,0,2.05884,14.375,0,17.5,1.09375,14.9019607843137,17.2,80.6,0,31.075,14.29935,183.2,95,18.75,0,43.75,18.75,78.0392156862745,
13,2019-05-27,11:36:18.87414,0.65509,,10.7457,0,-3.515625,-7.421875,-3.515625,1.5,0,18.75,14.7,18.75,43,0,2828.125,3.53515625,14.35873626,5.4032664,-8.95546986,6.5604,-7.79833626,0,2.078448,14.375,0,17.5,1.09375,14.9019607843137,17.2,80.6,0,31.075,14.29935,183.2,95,20.3125,0,43.75,20.3125,78.0392156862745,
14,2019-05-27,11:36:18.90538,0.68767,,10.7457,0,-3.515625,-7.421875,-3.515625,1.7,0,20.3125,14.7,23.4375,43,0,2867.1875,4.06184895833333,14.35873626,5.4032664,-8.95546986,6.5604,-7.79833626,0,2.078448,15,-6.875,16.25,0.15625,25.4901960784314,28.8352941176471,80.6,0,31.075,14.29935,183.2,95,31.25,0,60.9375,29.6875,78.0392156862745,
15,2019-05-27,11:36:18.95226,0.72869,,10.7457,0,-3.515625,-7.421875,-3.515625,2.3,0,31.25,14.7,35.9375,41,0,2843.75,5.45052083333333,14.35873626,9.3592293,-4.99950696,11.36355,-2.99518626,0,2.274528,15,-6.875,16.25,0.15625,25.4901960784314,28.8352941176471,80.6,0,31.075,14.22602,183.2,95,46.875,0,71.875,46.875,78.0392156862745,
16,2019-05-27,11:36:18.98349,0.76915,,10.7457,0,-7.421875,-7.421875,-3.515625,2.8,0,46.875,14.7,50,38,0,2929.6875,6.8359375,14.35873626,9.3592293,-4.99950696,11.36355,-2.99518626,0,2.274528,25.625,-10,16.875,-0.78125,25.4901960784314,28.8352941176471,80.6,0,31.075,14.22602,183.2,95,59.375,0,62.5,53.125,78.4313725490196,
17,2019-05-27,11:36:19.03035,0.81388,,10.9515,0,-7.421875,-7.421875,-3.515625,3,0,54.6875,14.7,54.6875,32,0,3023.4375,7.55859375,14.35873626,11.3854542,-2.97328206,13.8237,-0.53503626,0,2.137272,25.625,-10,16.875,-0.78125,26.6666666666667,27.3176470588235,80.6,0,31.075,14.22602,183.2,95,64.0625,0,59.375,57.8125,78.4313725490196,
18,2019-05-27,11:36:19.06160,0.84629,,10.9515,0,-7.421875,-7.421875,-3.515625,3,0,57.8125,14.7,57.8125,36,0,2875,7.1875,14.35873626,11.3854542,-2.97328206,13.8237,-0.53503626,0,2.137272,25,-10,23.125,-4.0625,26.6666666666667,27.3176470588235,80.6,0,31.075,14.15269,183.2,95,65.625,14.0625,53.125,57.8125,78.0392156862745,
19,2019-05-27,11:36:19.10854,0.8841,,10.9515,0,-7.421875,-7.421875,-3.515625,2.7,0,57.8125,14.7,57.8125,35,0,2757.8125,6.205078125,14.35873626,11.4819411,-2.87679516,13.94085,-0.417886260000001,0,1.980408,25,-10,23.125,-4.0625,26.6666666666667,27.3176470588235,80.6,0,31.075,14.15269,183.2,95,64.0625,34.375,39.0625,53.125,78.4313725490196,
20,2019-05-27,11:36:19.13979,0.92377,,10.9515,0,-7.421875,-7.421875,-3.515625,2.5,0,53.125,14.7,51.5625,36,0,2765.625,5.76171875,14.35873626,11.4819411,-2.87679516,13.94085,-0.417886260000001,0,1.980408,25,-10,22.65625,-5.78125,20.3921568627451,19.7294117647059,80.6,0,31.075,14.15269,183.2,95,57.8125,53.125,28.125,53.125,78.0392156862745,
21,2019-05-27,11:36:19.18660,0.96661,,10.9515,0,-7.421875,-7.421875,-3.515625,2.3,0,51.5625,14.7,50,25,0,2906.25,5.5703125,14.35873626,9.3592293,-4.99950696,11.36355,-2.99518626,0,1.803936,25,-10,22.65625,-5.78125,20.3921568627451,19.7294117647059,80.6,0,31.075,14.29935,183.2,95,50,45.3125,31.25,45.3125,78.0392156862745,
22,2019-05-27,11:36:19.23355,1.00874,,11.0103,0,-7.421875,-7.421875,-3.515625,2,0,43.75,14.7,43.75,39,0,2898.4375,4.83072916666667,14.35873626,9.3592293,-4.99950696,11.36355,-2.99518626,0,1.803936,21.25,-10,22.8125,-6.875,20.3921568627451,19.7294117647059,80.6,0,31.075,14.29935,183.2,95,48.4375,0,39.0625,42.1875,78.0392156862745,
23,2019-05-27,11:36:19.28030,1.05456,,11.0103,0,-7.421875,-7.421875,-3.515625,2.1,0,42.1875,14.7,40.625,38,0,2812.5,4.921875,14.35873626,9.2627424,-5.09599386,11.2464,-3.11233626,0,1.901976,21.25,-10,22.8125,-6.875,21.1764705882353,20.2352941176471,80.6,0,31.075,14.29935,183.2,95,48.4375,0,37.5,39.0625,78.0392156862745,
24,2019-05-27,11:36:19.31154,1.08952,,11.0103,0,-7.421875,-7.421875,-3.515625,2,0,39.0625,14.7,39.0625,39,0,2820.3125,4.70052083333333,14.35873626,9.2627424,-5.09599386,11.2464,-3.11233626,0,1.901976,19.375,-10,22.5,-7.65625,21.1764705882353,20.2352941176471,80.6,0,31.075,14.37268,183.2,95,48.4375,0,31.25,37.5,78.0392156862745,
25,2019-05-27,11:36:19.35840,1.1329,,11.0103,0,-7.421875,-7.421875,-3.515625,1.8,0,37.5,14.7,35.9375,40,0,2890.625,4.3359375,14.35873626,8.8767948,-5.48194146,10.7778,-3.58093626,0,1.921584,19.375,-10,22.5,-7.65625,21.1764705882353,20.2352941176471,80.6,0,31.075,14.37268,183.2,95,48.4375,0,34.375,35.9375,78.0392156862745,
26,2019-05-27,11:36:19.38965,1.1654,,11.8188,0,-7.421875,-7.421875,-3.515625,1.8,0,35.9375,14.7,35.9375,41,0,2914.0625,4.37109375,14.35873626,8.8767948,-5.48194146,10.7778,-3.58093626,0,1.921584,17.5,-10,21.09375,-7.96875,20.3921568627451,20.2352941176471,80.6,0,31.075,14.37268,183.2,95,46.875,0,34.375,34.375,78.0392156862745,
27,2019-05-27,11:36:19.42089,1.20319,,11.8188,0,-7.421875,-7.421875,-3.515625,1.8,0,34.375,14.7,34.375,41,0,2875,4.3125,14.35873626,8.5873341,-5.77140216,10.42635,-3.93238626,0,1.823544,17.5,-10,21.09375,-7.96875,20.3921568627451,20.2352941176471,80.6,0,31.075,14.29935,183.2,95,45.3125,0,32.8125,34.375,78.0392156862745,
28,2019-05-27,11:36:19.45213,1.23531,,11.8188,0,-7.421875,-7.421875,-3.515625,1.7,0,34.375,14.7,34.375,40,0,2835.9375,4.017578125,14.35873626,8.5873341,-5.77140216,10.42635,-3.93238626,0,1.823544,17.5,-10,20,-8.59375,20.3921568627451,20.2352941176471,80.6,0,31.075,14.29935,183.2,95,45.3125,0,34.375,34.375,78.0392156862745,
29,2019-05-27,11:36:19.48337,1.26422,,11.8188,0,-7.421875,-7.421875,-3.515625,1.7,0,34.375,14.7,34.375,40,0,2859.375,4.05078125,14.35873626,8.683821,-5.67491526,10.5435,-3.81523626,0,1.843152,17.5,-10,20,-8.59375,20.3921568627451,20.2352941176471,80.6,0,31.075,14.29935,183.2,95,45.3125,0,32.8125,34.375,78.0392156862745,
30,2019-05-27,11:36:19.51461,1.29778,,11.2896,0,-7.421875,-7.421875,-3.515625,1.8,0,34.375,14.7,34.375,41,0,2882.8125,4.32421875,14.35873626,8.683821,-5.67491526,10.5435,-3.81523626,0,1.843152,17.5,-10,19.0625,-8.90625,20.3921568627451,20.2352941176471,80.6,0,31.075,14.29935,183.2,95,45.3125,0,31.25,32.8125,78.0392156862745,
31,2019-05-27,11:36:19.56148,1.33668,,11.2896,0,-7.421875,-7.421875,-3.515625,1.7,0,32.8125,14.7,32.8125,41,0,2914.0625,4.12825520833333,14.35873626,8.4908472,-5.86788906,10.3092,-4.04953626,0,1.941192,17.5,-10,19.0625,-8.90625,20.3921568627451,20.2352941176471,80.6,0,31.075,14.29935,183.2,95,45.3125,0,34.375,32.8125,78.0392156862745,
32,2019-05-27,11:36:19.59272,1.36828,,11.2896,0,-7.421875,-7.421875,-3.515625,1.8,0,32.8125,14.7,34.375,41,0,2875,4.3125,14.35873626,8.4908472,-5.86788906,10.3092,-4.04953626,0,1.941192,16.875,-10,18.125,-9.21875,20.3921568627451,20.2352941176471,80.6,0,31.075,14.29935,183.2,95,45.3125,0,32.8125,32.8125,78.0392156862745,
33,2019-05-27,11:36:19.62396,1.40762,,11.2896,0,-7.421875,-7.421875,-3.515625,1.7,0,32.8125,14.7,32.8125,40,0,2859.375,4.05078125,14.35873626,8.3943603,-5.96437596,10.19205,-4.16668626,0,1.843152,16.875,-10,18.125,-9.21875,20.3921568627451,20.2352941176471,80.6,0,31.075,14.37268,183.2,95,45.3125,0,32.8125,32.8125,78.0392156862745,
34,2019-05-27,11:36:19.65521,1.43333,,11.2896,0,-7.421875,-7.421875,-3.515625,1.7,0,32.8125,14.7,32.8125,41,0,2875,4.07291666666667,14.35873626,8.3943603,-5.96437596,10.19205,-4.16668626,0,1.843152,16.875,-10,17.65625,-9.6875,20.3921568627451,20.2352941176471,80.6,0,31.075,14.37268,183.2,95,45.3125,0,35.9375,32.8125,78.0392156862745,
35,2019-05-27,11:36:19.68645,1.47259,,12.9213,0,-7.421875,-7.421875,-3.515625,1.8,0,32.8125,14.7,32.8125,41,0,2882.8125,4.32421875,14.35873626,8.7803079,-5.57842836,10.66065,-3.69808626,0,1.9608,16.875,-10,17.65625,-9.6875,23.1372549019608,28.8352941176471,80.6,0,31.075,14.37268,183.2,95,46.875,0,46.875,37.5,78.0392156862745,
36,2019-05-27,11:36:19.71769,1.50292,,12.9213,0,-7.421875,-7.421875,-3.515625,1.9,0,35.9375,14.7,37.5,41,0,2882.8125,4.564453125,14.35873626,8.7803079,-5.57842836,10.66065,-3.69808626,0,1.9608,20,-10,16.71875,-9.6875,23.1372549019608,28.8352941176471,80.6,0,31.075,14.29935,183.2,95,51.5625,0,68.75,45.3125,78.0392156862745,
37,2019-05-27,11:36:19.76455,1.54659,,12.9213,0,-7.421875,-7.421875,-3.515625,2.3,0,42.1875,14.7,45.3125,39,0,2867.1875,5.49544270833333,14.35873626,12.3503232,-2.00841306,14.9952,0.63646374,0,2.627472,20,-10,16.71875,-9.6875,23.1372549019608,28.8352941176471,80.6,0,31.075,14.29935,183.2,95,67.1875,0,106.25,65.625,78.0392156862745,
38,2019-05-27,11:36:19.81151,1.58276,,12.9213,0,-7.421875,-7.421875,-3.515625,3.2,0,60.9375,14.7,65.625,37,0,2914.0625,7.77083333333333,14.35873626,12.3503232,-2.00841306,14.9952,0.63646374,0,2.627472,26.25,-4.375,19.375,-10,50.1960784313725,67.7882352941176,80.6,0,31.075,14.29935,183.2,95,89.0625,0,82.8125,76.5625,78.0392156862745,
39,2019-05-27,11:36:19.84267,1.62467,,12.9213,0,-7.421875,-7.421875,-3.515625,3.2,0,75,14.7,76.5625,31,0,2976.5625,7.9375,14.35873626,14.8589826,0.500246339999999,18.0411,3.68236374,0,2.568648,26.25,-4.375,19.375,-10,50.1960784313725,67.7882352941176,80.6,0,31.075,14.29935,183.2,95,92.1875,0,89.0625,78.125,78.0392156862745,
40,2019-05-27,11:36:19.88956,1.66464,,14.6853,0,-7.421875,-7.421875,-3.515625,3.3,0,79.6875,14.7,79.6875,28,0,2921.875,8.03515625,14.35873626,14.8589826,0.500246339999999,18.0411,3.68236374,0,2.568648,21.875,-3.125,23.4375,-6.71875,50.1960784313725,67.7882352941176,80.6,0,31.075,14.29935,183.2,95,93.75,0,79.6875,79.6875,78.0392156862745,
41,2019-05-27,11:36:19.92086,1.70732,,14.6853,0,-7.421875,-7.421875,-3.515625,3.2,0,81.25,14.7,81.25,27,0,2882.8125,7.6875,14.35873626,15.0519564,0.693220139999999,18.2754,3.91666374,11.5,1.980408,21.875,-3.125,23.4375,-6.71875,85.4901960784314,100.164705882353,80.6,0,31.075,14.29935,183.2,95,95.3125,0,82.8125,81.25,78.0392156862745,
42,2019-05-27,11:36:19.95201,1.73255,,14.6853,0,-7.421875,-7.421875,-3.515625,3.2,0,81.25,14.7,81.25,27,0,2914.0625,7.77083333333333,14.35873626,15.0519564,0.693220139999999,18.2754,3.91666374,11.5,1.980408,23.125,-3.75,22.1875,-4.53125,85.4901960784314,100.164705882353,80.6,0,31.075,14.29935,183.2,95,95.3125,0,82.8125,81.25,78.0392156862745,
43,2019-05-27,11:36:19.98325,1.76979,,14.6853,0,-7.421875,-7.421875,-3.515625,3.2,0,81.25,14.5860465116279,81.25,28,0,2960.9375,7.89583333333333,14.35873626,15.1484433,0.78970704,18.39255,4.03381374,11.5,1.843152,23.125,-3.75,22.1875,-4.53125,85.4901960784314,100.164705882353,80.6,0,31.075,14.29935,183.2,95,95.3125,0,85.9375,82.8125,78.0392156862745,
44,2019-05-27,11:36:20.03012,1.80987,,12.8331,0,-7.421875,-7.421875,-3.515625,3.3,0,82.8125,14.5860465116279,84.375,27,0,2968.75,8.1640625,14.35873626,15.1484433,0.78970704,18.39255,4.03381374,11.5,1.843152,22.5,-4.375,22.03125,-3.59375,87.4509803921569,100.670588235294,80.6,0,31.075,14.29935,183.2,95,96.875,0,84.375,84.375,78.0392156862745,
45,2019-05-27,11:36:20.07712,1.84962,,12.8331,0,-7.421875,-7.421875,-3.515625,3.4,0,84.375,14.5860465116279,84.375,27,0,2945.3125,8.34505208333333,14.35873626,15.3414171,0.982680839999999,18.62685,4.26811374,11.5,2.176488,22.5,-4.375,22.03125,-3.59375,87.4509803921569,100.670588235294,80.6,0,31.075,14.29935,183.2,95,96.875,0,82.8125,84.375,78.0392156862745,
46,2019-05-27,11:36:20.09260,1.87707,,12.8331,0,-7.421875,-7.421875,-3.515625,3.3,0,84.375,14.5860465116279,84.375,27,0,2960.9375,8.142578125,14.35873626,15.3414171,0.982680839999999,18.62685,4.26811374,11.5,2.176488,22.5,-5,21.875,-4.375,87.4509803921569,100.670588235294,80.6,0,31.075,14.29935,183.2,95,96.875,0,85.9375,84.375,78.0392156862745,
47,2019-05-27,11:36:20.12385,1.90704,,12.8331,0,-7.421875,-7.421875,-3.515625,3.3,0,84.375,14.5860465116279,84.375,27,0,2984.375,8.20703125,14.35873626,15.437904,1.07916774,18.744,4.38526374,11.5,2.372568,22.5,-5,21.875,-4.375,87.4509803921569,100.670588235294,80.6,0,31.075,14.29935,183.2,95,98.4375,0,90.625,85.9375,78.0392156862745,
48,2019-05-27,11:36:20.15509,1.93985,,12.8331,0,-7.421875,-7.421875,-3.515625,3.3,0,85.9375,14.5860465116279,85.9375,26,0,3000,8.25,14.35873626,15.437904,1.07916774,18.744,4.38526374,11.5,2.372568,22.5,-5,21.5625,-4.375,87.4509803921569,100.670588235294,80.6,0,31.075,14.29935,183.2,95,98.4375,0,92.1875,87.5,78.0392156862745,
49,2019-05-27,11:36:20.20195,1.9841,,14.4648,0,-7.421875,-7.421875,-3.515625,3.4,0,87.5,14.4738461538462,87.5,26,0,3000,8.5,14.35873626,15.6308778,1.27214154,18.9783,4.61956374,11.5,2.411784,22.5,-5,21.5625,-4.375,87.4509803921569,100.670588235294,80.6,0,31.075,14.29935,183.2,95,98.4375,0,87.5,89.0625,78.0392156862745,
50,2019-05-27,11:36:20.23329,2.0158,,14.4648,0,-7.421875,-7.421875,-3.515625,3.4,0,89.0625,14.4738461538462,89.0625,25,0,3000,8.5,14.35873626,15.6308778,1.27214154,18.9783,4.61956374,11.5,2.411784,21.875,-5,21.5625,-4.6875,87.4509803921569,100.670588235294,80.6,0,31.075,14.29935,183.2,95,98.4375,0,95.3125,89.0625,78.0392156862745,
51,2019-05-27,11:36:20.26448,2.04425,,14.4648,0,-7.421875,-7.421875,-3.515625,3.4,0,89.0625,14.4738461538462,89.0625,25,0,3007.8125,8.52213541666667,14.35873626,15.6308778,1.27214154,18.9783,4.61956374,11.5,2.490216,21.875,-5,21.5625,-4.6875,87.4509803921569,100.670588235294,80.6,0,31.075,14.29935,183.2,95,98.4375,0,90.625,89.0625,78.0392156862745,
52,2019-05-27,11:36:20.29568,2.06686,,14.4648,0,-7.421875,-7.421875,-3.515625,3.4,0,89.0625,14.4738461538462,89.0625,25,0,3023.4375,8.56640625,14.35873626,15.6308778,1.27214154,18.9783,4.61956374,11.5,2.490216,22.5,-5,21.5625,-5,87.4509803921569,100.670588235294,80.6,0,31.075,14.29935,183.2,95,100,0,93.75,90.625,78.4313725490196,
53,2019-05-27,11:36:20.32692,2.11222,,14.4648,0,-7.421875,-7.421875,-3.515625,3.5,0,90.625,14.4738461538462,90.625,24,0,3039.0625,8.86393229166667,14.35873626,15.8238516,1.46511534,19.2126,4.85386374,11.5,2.333352,22.5,-5,21.5625,-5,87.4509803921569,100.670588235294,80.6,0,31.075,14.29935,183.2,95,100,0,95.3125,92.1875,78.4313725490196,
54,2019-05-27,11:36:20.37380,2.15144,,14.8323,0,-7.421875,-7.421875,-3.515625,3.6,0,92.1875,14.363358778626,92.1875,24,0,3046.875,9.140625,14.35873626,15.8238516,1.46511534,19.2126,4.85386374,11.5,2.333352,23.75,-5,21.5625,-5.15625,87.4509803921569,100.670588235294,80.6,0,31.075,14.37268,183.2,95,100,0,96.875,93.75,78.4313725490196,
55,2019-05-27,11:36:20.42066,2.19184,,14.8323,0,-7.421875,-7.421875,-3.515625,3.6,0,93.75,14.363358778626,93.75,23,0,3062.5,9.1875,14.35873626,15.9203385,1.56160224,19.32975,4.97101374,11.5,2.196096,23.75,-5,21.5625,-5.15625,87.4509803921569,100.670588235294,80.6,0,31.075,14.37268,183.2,95,101.5625,0,93.75,93.75,78.4313725490196,
56,2019-05-27,11:36:20.45199,2.22374,,14.8323,0,-7.421875,-7.421875,-3.515625,3.6,0,95.3125,14.363358778626,95.3125,23,0,3078.125,9.234375,14.35873626,15.9203385,1.56160224,19.32975,4.97101374,11.5,2.196096,23.75,-3.75,22.03125,-5.3125,87.4509803921569,100.670588235294,80.6,0,31.075,14.37268,183.2,95,101.5625,0,96.875,95.3125,78.4313725490196,
57,2019-05-27,11:36:20.48314,2.25651,,14.8323,0,-7.421875,-7.421875,-3.515625,3.6,0,95.3125,14.363358778626,95.3125,23,0,3062.5,9.1875,14.35873626,16.0168254,1.65808914,19.4469,5.08816374,11.5,2.431392,23.75,-3.75,22.03125,-5.3125,87.4509803921569,100.670588235294,80.6,0,33.561,14.37268,183.2,95,101.5625,0,101.5625,95.3125,78.4313725490196,
58,2019-05-27,11:36:20.49876,2.28375,,14.8911,0,-7.421875,-7.421875,-3.515625,3.6,0,95.3125,14.363358778626,95.3125,22,0,3070.3125,9.2109375,14.35873626,16.0168254,1.65808914,19.4469,5.08816374,11.5,2.431392,24.375,-4.375,22.34375,-4.84375,87.4509803921569,100.670588235294,80.6,0,33.561,14.37268,183.2,95,103.125,0,101.5625,96.875,78.4313725490196,
59,2019-05-27,11:36:20.54562,2.32379,,14.8911,0,-7.421875,-7.421875,-3.515625,3.7,0,96.875,14.363358778626,96.875,22,0,3093.75,9.5390625,14.35873626,16.2097992,1.85106294,19.6812,5.32246374,11.5,2.686296,24.375,-4.375,22.34375,-4.84375,87.4509803921569,100.670588235294,80.6,0,33.561,14.37268,183.2,95,103.125,0,101.5625,98.4375,78.0392156862745,
60,2019-05-27,11:36:20.57686,2.36146,,14.8911,0,-7.421875,-7.421875,-3.515625,3.7,0,98.4375,14.2545454545455,98.4375,21,0,3101.5625,9.56315104166667,14.35873626,16.2097992,1.85106294,19.6812,5.32246374,11.5,2.686296,25,-4.375,22.96875,-5,87.4509803921569,100.670588235294,80.6,0,33.561,14.22602,183.2,95,104.6875,0,103.125,100,78.4313725490196,
61,2019-05-27,11:36:20.62382,2.39507,,14.8911,0,-7.421875,-7.421875,-3.515625,3.7,0,100,14.2545454545455,100,21,0,3101.5625,9.56315104166667,14.35873626,16.402773,2.04403674,19.9155,5.55676374,11.5,2.588256,25,-4.375,22.96875,-5,87.4509803921569,100.670588235294,80.6,0,33.561,14.22602,183.2,95,104.6875,0,96.875,100,78.4313725490196,
62,2019-05-27,11:36:20.63944,2.42137,,14.8911,0,-7.421875,-7.421875,-3.515625,3.7,0,100,14.2545454545455,100,21,0,3125,9.63541666666667,14.35873626,16.402773,2.04403674,19.9155,5.55676374,11.5,2.588256,25,-5.625,23.28125,-5.15625,87.0588235294118,100.670588235294,80.6,0,33.561,14.22602,183.2,95,104.6875,0,101.5625,101.5625,78.4313725490196,
63,2019-05-27,11:36:20.68621,2.46867,,14.6265,0,-7.421875,-7.421875,-3.515625,3.8,0,101.5625,14.1473684210526,101.5625,20,0,3132.8125,9.92057291666667,14.35873626,16.4992599,2.14052364,20.03265,5.67391374,11.5,2.490216,25,-5.625,23.28125,-5.15625,87.0588235294118,100.670588235294,80.6,0,33.561,14.29935,183.2,95,106.25,0,107.8125,103.125,78.4313725490196,
64,2019-05-27,11:36:20.71746,2.504,,14.6265,0,-7.421875,-7.421875,-3.515625,3.9,0,104.6875,14.1473684210526,104.6875,20,0,3156.25,10.2578125,14.35873626,16.4992599,2.14052364,20.03265,5.67391374,11.5,2.490216,26.25,-7.5,23.75,-5.625,87.0588235294118,100.670588235294,80.6,0,33.561,14.29935,183.2,95,106.25,0,103.125,104.6875,78.4313725490196,
65,2019-05-27,11:36:20.76432,2.54109,,14.6265,0,-7.421875,-7.421875,-3.515625,3.9,0,104.6875,14.0417910447761,104.6875,20,0,3164.0625,10.283203125,14.35873626,16.6922337,2.33349744,20.26695,5.90821374,11.5,2.490216,26.25,-7.5,23.75,-5.625,87.0588235294118,100.670588235294,80.6,0,33.561,14.29935,183.2,95,107.8125,0,110.9375,106.25,78.4313725490196,
66,2019-05-27,11:36:20.79556,2.57321,,14.6265,0,-7.421875,-7.421875,-3.515625,4,0,106.25,14.0417910447761,106.25,19,0,3164.0625,10.546875,14.35873626,16.6922337,2.33349744,20.26695,5.90821374,11.5,2.490216,26.25,-7.5,24.375,-5.78125,87.0588235294118,100.670588235294,80.6,0,33.561,14.29935,183.2,95,109.375,0,107.8125,107.8125,78.4313725490196,
67,2019-05-27,11:36:20.84244,2.61693,,14.6706,0,-7.421875,-7.421875,-3.515625,4.1,0,107.8125,13.9377777777778,107.8125,19,0,3187.5,10.890625,14.35873626,16.8852075,2.52647124,20.50125,6.14251374,11.5,2.725512,26.25,-7.5,24.375,-5.78125,87.0588235294118,100.670588235294,80.6,0,33.561,14.29935,183.2,95,110.9375,0,109.375,109.375,78.4313725490196,
68,2019-05-27,11:36:20.85805,2.64314,,14.6706,0,-7.421875,-7.421875,-3.515625,4.1,0,109.375,13.9377777777778,110.9375,19,0,3187.5,10.890625,14.35873626,16.8852075,2.52647124,20.50125,6.14251374,11.5,2.725512,26.875,-8.75,24.84375,-6.875,87.0588235294118,100.670588235294,80.6,0,33.561,14.29935,183.2,95,110.9375,0,114.0625,110.9375,78.4313725490196,
69,2019-05-27,11:36:20.90491,2.68314,,14.6706,0,-7.421875,-7.421875,-3.515625,4.1,0,110.9375,13.9377777777778,110.9375,19,0,3179.6875,10.8639322916667,14.35873626,17.0781813,2.71944504,20.73555,6.37681374,11.5,2.451,26.875,-8.75,24.84375,-6.875,87.0588235294118,100.670588235294,80.6,0,33.561,14.37268,183.2,95,110.9375,0,118.75,110.9375,78.4313725490196,
70,2019-05-27,11:36:20.95187,2.72308,,14.6706,0,-7.421875,-7.421875,-3.515625,4.2,0,112.5,13.8352941176471,112.5,18,0,3226.5625,11.29296875,14.35873626,17.0781813,2.71944504,20.73555,6.37681374,11.5,2.451,27.5,-9.375,25.78125,-7.5,87.0588235294118,100.670588235294,80.6,0,33.561,14.37268,183.2,95,112.5,0,117.1875,112.5,78.4313725490196,